Flag for Colombia Weather past 2 weeks in Barranquilla, Colombia

Now
90 °F

Partly sunny.


Feels Like: 103 °F
Forecast: 78 / 86 °F
Wind: 17 mph from Northeast

Location: Barranquilla / Ernestocortissoz

Current Time: Mar 28, 2015 at 2:06:19 PM

Latest Report: Mar 28, 2015 at 1:00 PM


Visibility: N/A

Pressure: 29.89 "Hg

Humidity: 67%

Dew point: 77 °F

Location of BarranquillaLocation

Historic Weather in Barranquilla — Graph

°F

Barranquilla temperature yesterday

Maximum temperature yesterday: 91 °F (at 12:00 PM)
Minimum temperature yesterday: 75 °F (at 3:00 AM)
Average temperature yesterday: 82 °F

Past Weeks' High & Low Weather Summary

 TemperatureHumidityPressure
High95 °F (Mar 24, 12:00 PM)100% (Mar 16, 4:00 AM)30.00 "Hg (Mar 16, 4:00 AM)
Low75 °F (Mar 15, 6:00 AM)49% (Mar 22, 1:00 PM)29.69 "Hg (Mar 13, 4:00 PM)
Average81 °F80%29.86 "Hg
* Reported Mar 13 1:00 PM — Mar 28 1:00 PM, Barranquilla, Weather by CustomWeather, © 2015

Note: Actual official high and low records may vary slightly from our data, if they occured in-between our weather recording intervals... More about our weather records

Advertising

Barranquilla weather history for previous 24 hours

 ConditionsComfort  
Time TempWeatherWind HumidityBarometerVisibility
1:00 PM
Sat, Mar 28
90 °FPassing clouds.17 mph67%29.89 "HgN/A
12:00 PM90 °FPassing clouds.12 mph67%29.91 "HgN/A
11:00 AM91 °FPassing clouds.N/A63%29.93 "HgN/A
10:00 AM88 °FPassing clouds.6 mph70%29.94 "HgN/A
9:00 AM84 °FScattered clouds.6 mph79%29.95 "HgN/A
8:00 AM81 °FScattered clouds.8 mph89%29.94 "Hg5 mi
7:00 AM77 °FFog.5 mph100%29.92 "Hg3 mi
6:00 AM77 °FFog.3 mph94%29.89 "Hg4 mi
5:00 AM77 °FPassing clouds.6 mph100%29.86 "HgN/A
4:00 AM77 °FClear.5 mph100%29.85 "Hg10 mi
3:00 AM79 °FClear.5 mph94%29.83 "Hg10 mi
2:00 AM79 °FClear.7 mph84%29.84 "Hg10 mi
1:00 AM79 °FClear.7 mph94%29.84 "Hg10 mi
12:00 AM79 °FClear.8 mph94%29.87 "Hg10 mi
11:00 PM
Fri, Mar 27
79 °FClear.10 mph94%29.88 "Hg10 mi
10:00 PM81 °FClear.10 mph89%29.87 "Hg10 mi
9:00 PM81 °FClear.16 mph89%29.86 "Hg10 mi
8:00 PM81 °FClear.9 mph89%29.85 "Hg10 mi
7:00 PM81 °FClear.14 mph89%29.83 "Hg10 mi
6:00 PM82 °FSunny.10 mph84%29.81 "Hg10 mi
5:00 PM86 °FSunny.10 mph70%29.80 "Hg10 mi
4:00 PM90 °FSunny.15 mph63%29.79 "Hg10 mi
3:00 PM90 °FPassing clouds.8 mph63%29.80 "HgN/A
2:00 PM91 °FPassing clouds.13 mph63%29.82 "HgN/A
Weather by CustomWeather, © 2015

See weather overviewHow to use our weather pages